Springfield, OH

9:17 AM EDT on April 27, 2017 (GMT -0400)
Springfield-Beckley Municipal

Weather History for KSGH - February, 2014

Change the Weather History Date:

Tuesday, February 18, 2014

  Actual Average (KFFO) Record (KFFO)
Temperature  
Mean Temperature 39 °F -  
Max Temperature 45 °F 40 °F 65 °F (2017)
Min Temperature 33 °F 23 °F 3 °F (2015)
Degree Days  
Heating Degree Days 26    
Moisture  
Dew Point 29 °F    
Average Humidity 70    
Maximum Humidity 86    
Minimum Humidity 48    
Precipitation  
Precipitation 0.01 in - - ()
Sea Level Pressure  
Sea Level Pressure 29.98 in    
Wind  
Wind Speed 17 mph (SW)    
Max Wind Speed 25 mph    
Max Gust Speed 34 mph    
Visibility 9 miles    
Events      
Averages and records for this station are not official NWS values.
T = Trace of Precipitation, MM = Missing Value Source: NWS Daily Summary

Daily Weather History Graph

Daily Weather History Graph

Search for Another Location

Airport or City:

Trip Planner

Search our weather history database for the weather conditions in past years. The results will help you decide how hot, cold, wet, or windy it might be!

Date:

Astronomy

Feb. 18, 2014 Rise Set
Actual Time 7:24 AM EST 6:15 PM EST
Civil Twilight 6:56 AM EST 6:42 PM EST
Nautical Twilight 6:25 AM EST 7:14 PM EST
Astronomical Twilight 5:53 AM EST 7:45 PM EST
Moon 10:06 PM EST (2/18) 8:56 AM EST (2/18)
Length of Visible Light 11h 46m
Length of Day
10h 50m
Waning Gibbous, 87% of the Moon is Illuminated
Feb 18
Waning Gibbous
Feb 22
Last Quarter
Mar 1
New
Mar 8
First Quarter
Mar 16
Full

Hourly Weather History & Observations

Time (EST) Temp. Windchill Dew Point Humidity Pressure Visibility Wind Dir Wind Speed Gust Speed Precip Events Conditions
12:56 AM 34.9 °F 23.0 °F 31.1 °F 86% 29.86 in 8.0 mi SW 23.0 mph 34.5 mph 0.01 in   Overcast
1:56 AM 36.0 °F 24.2 °F 31.1 °F 82% 29.88 in 8.0 mi WSW 24.2 mph 28.8 mph N/A   Overcast
2:56 AM 34.9 °F 22.5 °F 31.1 °F 86% 29.89 in 8.0 mi WSW 25.3 mph 32.2 mph N/A   Overcast
3:56 AM 36.0 °F 24.2 °F 30.0 °F 79% 29.92 in 8.0 mi WSW 24.2 mph 31.1 mph N/A   Overcast
4:56 AM 34.9 °F 24.6 °F 30.0 °F 82% 29.96 in 9.0 mi WSW 17.3 mph 25.3 mph N/A   Overcast
5:56 AM 34.9 °F 23.3 °F 30.0 °F 82% 30.01 in 9.0 mi West 21.9 mph 32.2 mph N/A   Overcast
6:56 AM 34.9 °F 23.9 °F 30.0 °F 82% 30.04 in 9.0 mi West 19.6 mph 27.6 mph N/A   Overcast
7:56 AM 34.0 °F 23.4 °F 29.1 °F 82% 30.06 in 7.0 mi West 17.3 mph 23.0 mph N/A   Overcast
8:44 AM 33.8 °F 24.8 °F 28.4 °F 81% 30.06 in 7.0 mi West 12.7 mph - N/A   Scattered Clouds
8:56 AM 34.0 °F 25.0 °F 29.1 °F 82% 30.10 in 7.0 mi WSW 12.7 mph - N/A   Partly Cloudy
9:56 AM 34.9 °F 26.2 °F 29.1 °F 79% 30.12 in 7.0 mi WSW 12.7 mph - N/A   Clear
10:56 AM 36.9 °F 29.6 °F 30.0 °F 76% 30.13 in 8.0 mi WSW 10.4 mph - N/A   Clear
11:56 AM 39.9 °F 33.4 °F 30.0 °F 68% 30.12 in 8.0 mi WSW 10.4 mph - N/A   Clear
12:56 PM 41.9 °F 36.3 °F 29.1 °F 61% 30.08 in 9.0 mi SW 9.2 mph - N/A   Clear
1:56 PM 45.0 °F 39.3 °F 27.1 °F 50% 30.05 in 8.0 mi SSW 11.5 mph - N/A   Clear
2:56 PM 45.9 °F 41.7 °F 27.1 °F 48% 30.03 in 8.0 mi South 8.1 mph - N/A   Clear
3:56 PM 43.0 °F 36.4 °F 29.1 °F 58% 29.99 in 9.0 mi SSE 12.7 mph - N/A   Clear
4:56 PM 43.9 °F 38.3 °F 29.1 °F 56% 29.98 in 9.0 mi SSE 10.4 mph - N/A   Clear
5:56 PM 41.0 °F 34.7 °F 30.0 °F 65% 29.95 in 9.0 mi SSE 10.4 mph - N/A   Clear
6:56 PM 39.9 °F 33.9 °F 29.1 °F 65% 29.94 in 10.0 mi SSE 9.2 mph - N/A   Clear
7:56 PM 37.9 °F 29.6 °F 29.1 °F 71% 29.92 in 10.0 mi SE 13.8 mph - N/A   Clear
8:56 PM 39.9 °F 32.9 °F 28.0 °F 63% 29.90 in 10.0 mi SSE 11.5 mph - N/A   Clear
9:56 PM 39.9 °F 32.9 °F 28.0 °F 63% 29.87 in 10.0 mi SSE 11.5 mph - N/A   Clear
10:56 PM 41.9 °F 35.4 °F 27.1 °F 56% 29.83 in 10.0 mi South 11.5 mph - N/A   Clear
11:56 PM 45.9 °F 40.4 °F 28.0 °F 50% 29.81 in 10.0 mi South 11.5 mph - N/A   Partly Cloudy